This demonstration page uses our WeatherBlox Daily Observations layout. Learn more.

39.01783, -85.05884

Hourly Observations for January 8, 2019

Temp ( °F °C ) Dew Point ( °F °C ) Humidity (%) Winds ( mph kmh ) Pressure ( in mb ) Visibility ( mi km ) Precip ( " mm )
12:35 am 00:35 Cloudy 56 13.3 49 9.4 77 77 SSW 14 22 29.94 1014 10 16.09344 0 0
12:52 am 00:52 Cloudy 56 13.3 49 9.4 77 77 SW 14 22 29.91 1013 10 16.09344 0 0
1:12 am 01:12 Cloudy 56 13.3 50 10 81 81 SW 10 17 29.94 1014 10 16.09344 0 0
1:52 am 01:52 Cloudy 56 13.3 50 10 81 81 SW 12 19 29.91 1013 10 16.09344 0 0
2:52 am 02:52 Cloudy 55 12.8 49 9.4 80 80 SSW 9 15 29.91 1013 10 16.09344 0 0
3:52 am 03:52 Cloudy 55 12.8 50 10 83 83 SSW 8 13 29.91 1013 10 16.09344 0 0
4:52 am 04:52 Cloudy 55 12.8 49 9.4 80 80 SSW 10 17 29.88 1012 10 16.09344 0 0
5:40 am 05:40 Cloudy 55 12.8 49 9.4 80 80 SSW 14 22 29.88 1012 10 16.09344 0 0
5:52 am 05:52 Cloudy 54 12.2 49 9.4 83 83 SSW 13 20 29.85 1011 10 16.09344 0 0
6:52 am 06:52 Mostly Cloudy 54 12.2 48 8.9 80 80 SSW 12 19 29.85 1011 10 16.09344 0 0
7:23 am 07:23 Mostly Cloudy 53 11.7 48 8.9 83 83 SSW 10 17 29.88 1012 10 16.09344 0 0
7:44 am 07:44 Cloudy 53 11.7 48 8.9 83 83 SSW 8 13 29.88 1012 10 16.09344 0 0
7:52 am 07:52 Cloudy 53 11.7 48 8.9 83 83 SSW 10 17 29.85 1011 10 16.09344 0 0
8:22 am 08:22 Partly Cloudy 53 11.7 48 8.9 83 83 SSW 10 17 29.88 1012 10 16.09344 0 0
8:52 am 08:52 Partly Cloudy 54 12.2 48 8.9 80 80 SSW 12 19 29.85 1011 10 16.09344 0 0
9:52 am 09:52 Partly Cloudy 56 13.3 49 9.4 77 77 SW 14 22 29.85 1011 10 16.09344 0 0
10:24 am 10:24 Mostly Cloudy 57 13.9 49 9.4 74 74 WSW 16 26 29.88 1012 10 16.09344 0 0
10:52 am 10:52 Mostly Cloudy 58 14.4 49 9.4 72 72 SW 16 26 29.83 1010 10 16.09344 0 0
11:06 am 11:06 Partly Cloudy 58 14.4 48 8.9 70 70 SW 20 31 29.85 1011 10 16.09344 0 0
11:52 am 11:52 Mostly Sunny 60 15.6 43 6.1 53 53 SW 24 39 29.8 1009 10 16.09344 0 0
12:52 pm 12:52 Partly Cloudy 63 17.2 41 5 45 45 SW 18 30 29.74 1007 10 16.09344 0 0
1:52 pm 13:52 Mostly Cloudy 60 15.6 37 2.8 42 42 W 25 41 29.74 1007 10 16.09344 0 0
2:52 pm 14:52 Partly Cloudy 61 16.1 35 1.7 38 38 W 24 39 29.77 1008 10 16.09344 0 0
3:52 pm 15:52 Mostly Sunny 55 12.8 32 0 42 42 W 26 43 29.83 1010 10 16.09344 0 0
4:52 pm 16:52 Mostly Cloudy 50 10 33 0.6 52 52 WNW 23 37 29.88 1012 10 16.09344 0 0
5:52 pm 17:52 Mostly Cloudy 47 8.3 32 0 56 56 W 26 43 29.94 1014 10 16.09344 0 0
6:52 pm 18:52 Clear 46 7.8 30 -1.1 54 54 W 24 39 29.97 1015 10 16.09344 0 0
7:52 pm 19:52 Clear 44 6.7 28 -2.2 53 53 W 14 22 30 1016 10 16.09344 0 0
8:52 pm 20:52 Clear 43 6.1 23 -5 45 45 W 23 37 30.03 1017 10 16.09344 0 0
9:52 pm 21:52 Clear 43 6.1 23 -5 45 45 W 16 26 30.03 1017 10 16.09344 0 0
10:52 pm 22:52 Partly Cloudy 42 5.6 24 -4.4 49 49 W 13 20 30 1016 10 16.09344 0 0
11:52 pm 23:52 Partly Cloudy 41 5 24 -4.4 51 51 WSW 9 15 30 1016 10 16.09344 0 0

Powered by AerisWeather